EW9362 Weather Reports


Display with metric or nautical units.
time (UTC)temp
F
wind
direction
speed
MPH
gust
MPH
rain 1hr
in
rain 24hr
in
rain mn
in
humidity
%
barometer
mb
20260901195027 96 0 2.0 8.0 0.00 0.00 0.00 48 1017.2
20260901194602 95 0 1.0 8.0 0.00 0.00 0.00 47 1017.4
20260901194029 95 330 1.0 8.0 0.00 0.00 0.00 48 1017.4
20260901193528 94 348 2.0 9.0 0.00 0.00 0.00 49 1017.4
20260901193100 94 21 3.0 9.0 0.00 0.00 0.00 49 1017.4
20260901192532 96 0 2.0 9.0 0.00 0.00 0.00 47 1017.5
20260901192027 96 229 2.0 9.0 0.00 0.00 0.00 46 1017.5
20260901191554 96 233 0.0 7.0 0.00 0.00 0.00 50 1017.5
20260901191028 96 0 0.0 7.0 0.00 0.00 0.00 48 1017.4
20260901190528 95 82 2.0 8.0 0.00 0.00 0.00 50 1017.5
20260901190049 95 4 4.0 8.0 0.00 0.00 0.00 51 1017.5
20260901185528 95 110 1.0 7.0 0.00 0.00 0.00 49 1017.6
20260901185028 95 0 1.0 7.0 0.00 0.00 0.00 49 1017.7
20260901184600 95 169 1.0 9.0 0.00 0.00 0.00 50 1017.8
20260901184031 94 0 2.0 9.0 0.00 0.00 0.00 52 1017.9
20260901183528 93 343 1.0 8.0 0.00 0.00 0.00 52 1017.9
20260901183116 93 292 1.0 5.0 0.00 0.00 0.00 51 1018.0
20260901182528 94 0 1.0 8.0 0.00 0.00 0.00 53 1018.1
20260901182030 93 240 4.0 8.0 0.00 0.00 0.00 53 1018.1
20260901181547 94 339 1.0 10.0 0.00 0.00 0.00 51 1018.1
20260901181031 93 223 3.0 10.0 0.00 0.00 0.00 54 1018.2
20260901180531 93 41 2.0 9.0 0.00 0.00 0.00 54 1018.2
20260901180055 92 359 2.0 8.0 0.00 0.00 0.00 56 1018.3
20260901175529 92 0 1.0 8.0 0.00 0.00 0.00 56 1018.3
20260901175029 92 91 0.0 8.0 0.00 0.00 0.00 56 1018.4
20260901174556 91 8 3.0 7.0 0.00 0.00 0.00 57 1018.5
20260901174027 92 360 1.0 9.0 0.00 0.00 0.00 55 1018.6
20260901173529 92 317 2.0 9.0 0.00 0.00 0.00 58 1018.6
20260901173100 92 4 3.0 10.0 0.00 0.00 0.00 57 1018.5
20260901172530 93 0 0.0 10.0 0.00 0.00 0.00 56 1018.5
20260901172028 92 340 3.0 9.0 0.00 0.00 0.00 57 1018.5
20260901171553 93 316 0.0 12.0 0.00 0.00 0.00 56 1018.5
20260901171034 92 254 3.0 12.0 0.00 0.00 0.00 58 1018.7
20260901170530 92 58 4.0 12.0 0.00 0.00 0.00 58 1018.8
20260901165526 93 356 1.0 7.0 0.00 0.00 0.00 56 1018.8
20260901165028 93 349 0.0 7.0 0.00 0.00 0.00 56 1018.9
20260901164553 92 0 1.0 7.0 0.00 0.00 0.00 59 1018.9
20260901164030 92 95 0.0 5.0 0.00 0.00 0.00 58 1018.8
20260901163528 92 0 0.0 5.0 0.00 0.00 0.00 60 1018.9
20260901163108 91 56 0.0 6.0 0.00 0.00 0.00 60 1019.1
20260901162528 91 320 2.0 12.0 0.00 0.00 0.00 61 1019.1
20260901162032 91 115 2.0 12.0 0.00 0.00 0.00 61 1019.1
20260901161605 91 23 0.0 9.0 0.00 0.00 0.00 60 1019.2
20260901161030 90 1 3.0 9.0 0.00 0.00 0.00 62 1019.1
20260901160528 90 32 2.0 8.0 0.00 0.00 0.00 63 1019.2
20260901160052 90 335 1.0 8.0 0.00 0.00 0.00 62 1019.1
20260901155528 89 322 3.0 8.0 0.00 0.00 0.00 63 1019.2
20260901155028 90 324 1.0 4.0 0.00 0.00 0.00 64 1019.3
20260901154554 90 10 0.0 6.0 0.00 0.00 0.00 63 1019.3
20260901154028 89 129 1.0 6.0 0.00 0.00 0.00 64 1019.3
20260901153531 89 351 1.0 4.0 0.00 0.00 0.00 64 1019.4
20260901153046 89 338 1.0 6.0 0.00 0.00 0.00 64 1019.4
20260901152534 89 288 2.0 6.0 0.00 0.00 0.00 65 1019.4
20260901152029 88 358 1.0 6.0 0.00 0.00 0.00 65 1019.3
20260901151553 89 29 1.0 3.0 0.00 0.00 0.00 65 1019.5
20260901151029 89 0 0.0 4.0 0.00 0.00 0.00 63 1019.3
20260901150529 89 0 0.0 4.0 0.00 0.00 0.00 64 1019.3
20260901150058 89 211 0.0 6.0 0.00 0.00 0.00 65 1019.3
20260901145530 88 165 0.0 6.0 0.00 0.00 0.00 67 1019.4
20260901145029 87 98 2.0 6.0 0.00 0.00 0.00 66 1019.5
20260901144546 88 131 1.0 5.0 0.00 0.00 0.00 66 1019.5
20260901144028 87 0 0.0 5.0 0.00 0.00 0.00 67 1019.4
20260901143530 87 165 0.0 3.0 0.00 0.00 0.00 66 1019.5
20260901143106 87 32 0.0 3.0 0.00 0.00 0.00 66 1019.4
20260901142528 86 104 0.0 2.0 0.00 0.00 0.00 66 1019.5
20260901142030 86 0 0.0 2.0 0.00 0.00 0.00 67 1019.6
20260901141554 86 0 0.0 3.0 0.00 0.00 0.00 69 1019.6
20260901141029 85 0 0.0 3.0 0.00 0.00 0.00 70 1019.7
20260901140527 85 0 1.0 3.0 0.00 0.00 0.00 69 1019.7
20260901140048 85 142 0.0 2.0 0.00 0.00 0.00 70 1019.7
20260901135531 84 0 0.0 4.0 0.00 0.00 0.00 71 1019.6
20260901135030 83 11 1.0 4.0 0.00 0.00 0.00 71 1019.7
20260901134554 84 24 0.0 3.0 0.00 0.00 0.00 72 1019.7
20260901134031 84 0 0.0 3.0 0.00 0.00 0.00 72 1019.8
20260901133533 84 82 0.0 3.0 0.00 0.00 0.00 71 1019.7
20260901133058 83 99 1.0 3.0 0.00 0.00 0.00 71 1019.7
20260901132529 83 0 0.0 3.0 0.00 0.00 0.00 73 1019.7
20260901132028 83 200 1.0 3.0 0.00 0.00 0.00 73 1019.7
20260901131555 82 227 0.0 2.0 0.00 0.00 0.00 74 1019.7
20260901131030 82 0 0.0 2.0 0.00 0.00 0.00 74 1019.7
20260901130529 82 0 0.0 2.0 0.00 0.00 0.00 75 1019.8
20260901130053 81 0 0.0 2.0 0.00 0.00 0.00 75 1019.7
20260901125528 81 0 0.0 1.0 0.00 0.00 0.00 76 1019.7
20260901125028 80 176 0.0 1.0 0.00 0.00 0.00 77 1019.6
20260901124549 79 0 0.0 2.0 0.00 0.00 0.00 78 1019.7
20260901124032 78 167 0.0 2.0 0.00 0.00 0.00 79 1019.6
20260901123530 77 169 0.0 2.0 0.00 0.00 0.00 81 1019.6
20260901123046 77 170 0.0 2.0 0.00 0.00 0.00 82 1019.6
20260901122529 76 0 0.0 2.0 0.00 0.00 0.00 83 1019.6
20260901122028 75 179 0.0 2.0 0.00 0.00 0.00 84 1019.6
20260901121602 75 191 0.0 1.0 0.00 0.00 0.00 85 1019.5
20260901121032 74 0 0.0 1.0 0.00 0.00 0.00 85 1019.5
20260901120529 74 175 0.0 0.0 0.00 0.00 0.00 85 1019.5
20260901120104 74 0 0.0 0.0 0.00 0.00 0.00 86 1019.4
20260901115528 74 0 0.0 1.0 0.00 0.00 0.00 86 1019.4
20260901115030 74 0 0.0 2.0 0.00 0.00 0.00 86 1019.2
20260901114602 74 0 0.0 2.0 0.00 0.00 0.00 86 1019.1
20260901114029 74 0 0.0 1.0 0.00 0.00 0.00 87 1019.1
20260901113530 73 0 0.0 1.0 0.00 0.00 0.00 87 1019.1
20260901113056 73 0 0.0 0.0 0.00 0.00 0.00 87 1019.1
20260901112530 74 0 0.0 2.0 0.00 0.00 0.00 86 1018.9
20260901112030 74 169 0.0 4.0 0.00 0.00 0.00 86 1018.8
20260901111559 73 212 0.0 6.0 0.00 0.00 0.00 87 1018.6
20260901111029 74 185 2.0 6.0 0.00 0.00 0.00 86 1018.6
20260901110527 73 172 2.0 4.0 0.00 0.00 0.00 87 1018.5
20260901110053 73 189 1.0 4.0 0.00 0.00 0.00 87 1018.5
20260901105530 74 0 0.0 3.0 0.00 0.00 0.00 87 1018.5
20260901105026 74 0 0.0 2.0 0.00 0.00 0.00 87 1018.4
20260901104551 74 181 0.0 3.0 0.00 0.00 0.00 87 1018.4
20260901104031 74 153 0.0 3.0 0.00 0.00 0.00 87 1018.4
20260901103529 74 184 1.0 3.0 0.00 0.00 0.00 87 1018.3
20260901103054 73 174 0.0 1.0 0.00 0.00 0.00 87 1018.3
20260901102528 73 0 0.0 0.0 0.00 0.00 0.00 88 1018.3
20260901102031 73 0 0.0 0.0 0.00 0.00 0.00 88 1018.2
20260901101606 73 0 0.0 0.0 0.00 0.00 0.00 89 1018.2
20260901101030 73 0 0.0 0.0 0.00 0.00 0.00 89 1018.2
20260901100529 72 0 0.0 0.0 0.00 0.00 0.00 89 1018.1
20260901100057 73 0 0.0 0.0 0.00 0.00 0.00 89 1018.0
20260901095529 73 0 0.0 0.0 0.00 0.00 0.00 89 1018.0
20260901095029 73 0 0.0 0.0 0.00 0.00 0.00 89 1017.8
20260901094550 73 0 0.0 0.0 0.00 0.00 0.00 89 1017.8
20260901094029 73 0 0.0 0.0 0.00 0.00 0.00 88 1017.7
20260901093528 73 0 0.0 0.0 0.00 0.00 0.00 88 1017.7
20260901093045 74 0 0.0 0.0 0.00 0.00 0.00 87 1017.7
20260901092529 74 0 0.0 0.0 0.00 0.00 0.00 87 1017.6
20260901092028 74 0 0.0 0.0 0.00 0.00 0.00 85 1017.6
20260901091553 75 0 0.0 0.0 0.00 0.00 0.00 85 1017.6
20260901091028 75 0 0.0 1.0 0.00 0.00 0.00 85 1017.5
20260901090528 75 0 0.0 1.0 0.00 0.00 0.00 84 1017.4
20260901090050 75 0 0.0 2.0 0.00 0.00 0.00 84 1017.4
20260901085558 75 192 0.0 2.0 0.00 0.00 0.00 84 1017.4
20260901085030 75 163 0.0 3.0 0.00 0.00 0.00 84 1017.2
20260901084621 75 186 0.0 3.0 0.00 0.00 0.00 85 1017.2
20260901084031 75 184 0.0 3.0 0.00 0.00 0.00 84 1017.2
20260901083535 75 186 0.0 3.0 0.00 0.00 0.00 84 1017.4
20260901083054 75 196 0.0 2.0 0.00 0.00 0.00 84 1017.2
20260901082531 76 0 0.0 1.0 0.00 0.00 0.00 84 1017.3
20260901082032 76 179 0.0 1.0 0.00 0.00 0.00 83 1017.2
20260901081554 76 193 0.0 3.0 0.00 0.00 0.00 83 1017.2
20260901081029 76 0 0.0 5.0 0.00 0.00 0.00 83 1017.3
20260901080529 76 167 1.0 5.0 0.00 0.00 0.00 83 1017.2
20260901080107 76 219 0.0 3.0 0.00 0.00 0.00 82 1017.3
20260901075529 76 0 0.0 3.0 0.00 0.00 0.00 82 1017.4
20260901075033 76 0 0.0 3.0 0.00 0.00 0.00 82 1017.2
20260901074553 77 188 0.0 3.0 0.00 0.00 0.00 82 1017.3
20260901074032 77 0 0.0 3.0 0.00 0.00 0.00 82 1017.3
20260901073528 77 0 0.0 2.0 0.00 0.00 0.00 82 1017.2
20260901073059 77 174 0.0 4.0 0.00 0.00 0.00 82 1017.2
20260901072531 77 177 0.0 4.0 0.00 0.00 0.00 82 1017.2
20260901072028 77 187 1.0 4.0 0.00 0.00 0.00 82 1017.3
20260901071553 77 191 0.0 3.0 0.00 0.00 0.00 82 1017.4
20260901071028 77 0 0.0 3.0 0.00 0.00 0.00 81 1017.5
20260901070528 77 192 0.0 3.0 0.00 0.00 0.00 81 1017.5
20260901070050 77 155 0.0 4.0 0.00 0.00 0.00 81 1017.5
20260901065529 77 183 0.0 4.0 0.00 0.00 0.00 81 1017.6
20260901065029 77 0 0.0 4.0 0.00 0.00 0.00 81 1017.5
20260901064553 77 188 0.0 3.0 0.00 0.00 0.00 81 1017.5
20260901064029 77 158 0.0 4.0 0.00 0.00 0.00 81 1017.6
20260901063534 77 190 1.0 4.0 0.00 0.00 0.00 81 1017.6
20260901063102 77 0 0.0 3.0 0.00 0.00 0.00 81 1017.7
20260901062529 77 146 0.0 3.0 0.00 0.00 0.00 81 1017.7
20260901062029 77 206 0.0 3.0 0.00 0.00 0.00 81 1017.7
20260901061551 78 205 0.0 3.0 0.00 0.00 0.00 80 1017.7
20260901061030 78 170 0.0 3.0 0.00 0.00 0.00 80 1017.7
20260901060529 78 176 0.0 3.0 0.00 0.00 0.00 80 1017.7
20260901060054 78 155 1.0 4.0 0.00 0.00 0.00 79 1017.8
20260901055531 78 160 0.0 4.0 0.00 0.00 0.00 79 1017.8
20260901055117 78 169 1.0 5.0 0.00 0.00 0.00 79 1017.9
20260901054600 78 185 1.0 5.0 0.00 0.00 0.00 79 1017.8
20260901054031 78 176 0.0 3.0 0.00 0.00 0.00 79 1017.9
20260901053529 78 168 1.0 3.0 0.00 0.00 0.00 80 1017.8
20260901053057 78 203 0.0 3.0 0.00 0.00 0.00 80 1017.9
20260901052528 78 0 0.0 3.0 0.00 0.00 0.00 80 1017.9
20260901052028 78 0 0.0 0.0 0.00 0.00 0.00 79 1018.0
20260901051545 78 0 0.0 0.0 0.00 0.00 0.00 80 1018.1
20260901051028 78 0 0.0 0.0 0.00 0.00 0.00 80 1018.1
20260901050530 78 0 0.0 0.0 0.00 0.00 0.00 79 1018.1
20260901050056 79 0 0.0 2.0 0.00 0.00 0.00 79 1018.0
20260901045531 79 0 0.0 2.0 0.00 0.00 0.00 78 1018.0
20260901045029 79 176 0.0 2.0 0.00 0.00 0.00 77 1018.0
20260901044555 79 0 0.0 2.0 0.00 0.00 0.00 77 1017.9
20260901044029 79 0 0.0 3.0 0.00 0.00 0.00 77 1017.9
20260901043532 80 158 0.0 3.0 0.00 0.00 0.00 76 1017.9
20260901043102 80 175 0.0 3.0 0.00 0.00 0.00 76 1017.9
20260901042528 80 155 0.0 3.0 0.00 0.00 0.00 75 1018.0
20260901042032 80 179 1.0 4.0 0.00 0.00 0.00 75 1017.9
20260901041617 80 174 1.0 4.0 0.00 0.00 0.00 75 1017.9
20260901041031 80 187 0.0 1.0 0.00 0.00 0.00 76 1017.8
20260901040528 80 0 0.0 0.0 0.00 0.00 0.00 77 1017.9
20260901040133 80 164 0.0 2.0 0.00 0.00 0.00 76 1017.8
20260901035529 80 0 0.0 2.0 0.00 0.00 0.00 75 1017.8
20260901035032 80 164 0.0 1.0 0.00 0.00 0.00 75 1017.8
20260901034552 80 0 0.0 2.0 0.00 0.00 0.00 75 1017.8
20260901034029 80 169 0.0 2.0 0.00 0.00 0.00 75 1017.8
20260901033533 81 173 0.0 2.0 0.00 0.00 0.00 74 1017.8
20260901033047 81 0 0.0 2.0 0.00 0.00 0.00 74 1017.7
20260901032529 81 171 0.0 2.0 0.00 0.00 0.00 74 1017.7
20260901032030 80 172 0.0 1.0 0.00 0.00 0.00 74 1017.7
20260901031557 80 172 0.0 0.0 0.00 0.00 0.00 75 1017.8
20260901031028 80 0 0.0 0.0 0.00 0.00 0.00 75 1017.7
20260901030528 80 0 0.0 0.0 0.00 0.00 0.00 76 1017.8
20260901030057 80 0 0.0 0.0 0.00 0.00 0.00 76 1017.8
20260901025529 80 169 0.0 0.0 0.00 0.00 0.00 75 1017.8
20260901025031 80 157 0.0 0.0 0.00 0.00 0.00 76 1017.8
20260901024554 80 0 0.0 0.0 0.00 0.00 0.00 76 1017.7
20260901024027 80 0 0.0 0.0 0.00 0.00 0.00 76 1017.7
20260901023528 80 0 0.0 0.0 0.00 0.00 0.00 75 1017.7
20260901023046 81 0 0.0 0.0 0.00 0.00 0.00 74 1017.7
20260901022530 81 0 0.0 0.0 0.00 0.00 0.00 73 1017.7
20260901022030 81 0 0.0 1.0 0.00 0.00 0.00 72 1017.6
20260901021545 81 0 0.0 1.0 0.00 0.00 0.00 72 1017.7
20260901021029 81 0 0.0 0.0 0.00 0.00 0.00 72 1017.5
20260901020528 82 0 0.0 0.0 0.00 0.00 0.00 71 1017.4
20260901020046 82 0 0.0 0.0 0.00 0.00 0.00 70 1017.3
20260901015528 82 0 0.0 0.0 0.00 0.00 0.00 71 1017.3
20260901015028 82 0 0.0 0.0 0.00 0.00 0.00 72 1017.3
20260901014556 81 0 0.0 0.0 0.00 0.00 0.00 72 1017.3
20260901014031 81 0 0.0 0.0 0.00 0.00 0.00 73 1017.2
20260901013529 82 0 0.0 0.0 0.00 0.00 0.00 72 1017.2
20260901013052 82 0 0.0 0.0 0.00 0.00 0.00 70 1017.0
20260901012528 82 0 0.0 0.0 0.00 0.00 0.00 70 1017.2
20260901012028 81 0 0.0 0.0 0.00 0.00 0.00 72 1017.1
20260901011556 82 0 0.0 0.0 0.00 0.00 0.00 72 1017.0
20260901011029 82 0 0.0 1.0 0.00 0.00 0.00 72 1016.9
20260901010529 82 0 0.0 1.0 0.00 0.00 0.00 71 1017.0
20260901010113 82 0 0.0 0.0 0.00 0.00 0.00 71 1016.9
20260901005530 83 0 0.0 0.0 0.00 0.00 0.00 70 1016.8
20260901005028 83 0 0.0 0.0 0.00 0.00 0.00 70 1016.8
20260901004553 83 0 0.0 0.0 0.00 0.00 0.00 69 1016.7
20260901004028 84 0 0.0 0.0 0.00 0.00 0.00 68 1016.8
20260901003529 85 0 0.0 0.0 0.00 0.00 0.00 66 1016.8
20260901003047 85 0 0.0 0.0 0.00 0.00 0.00 65 1016.8
20260901002530 85 0 0.0 0.0 0.00 0.00 0.00 65 1016.7
20260901002029 85 0 0.0 0.0 0.00 0.00 0.00 65 1016.6
20260901001555 86 0 0.0 0.0 0.00 0.00 0.00 64 1016.7
20260901001029 87 0 0.0 0.0 0.00 0.00 0.00 61 1016.7
20260901000531 88 0 0.0 0.0 0.00 0.00 0.00 59 1016.7
20260901000053 88 0 0.0 0.0 0.00 0.00 0.00 59 1016.7
20260831235528 89 0 0.0 0.0 0.00 0.00 0.00 58 1016.6
20260831235031 89 0 0.0 0.0 0.00 0.00 0.00 58 1016.7
20260831234553 89 0 0.0 0.0 0.00 0.00 0.00 57 1016.7
20260831234029 89 0 0.0 2.0 0.00 0.00 0.00 57 1016.8
20260831233532 90 0 0.0 2.0 0.00 0.00 0.00 56 1016.7
20260831233055 90 0 0.0 1.0 0.00 0.00 0.00 56 1016.8
20260831232531 91 0 0.0 1.0 0.00 0.00 0.00 55 1016.8
20260831232031 91 0 0.0 2.0 0.00 0.00 0.00 54 1016.8
20260831231550 91 0 0.0 3.0 0.00 0.00 0.00 54 1016.8
20260831231029 92 58 0.0 6.0 0.00 0.00 0.00 54 1016.6
20260831230529 92 94 0.0 6.0 0.00 0.00 0.00 52 1016.8
20260831230112 93 358 0.0 4.0 0.00 0.00 0.00 51 1016.6
20260831225529 94 0 0.0 3.0 0.00 0.00 0.00 51 1016.6
20260831225032 93 0 0.0 4.0 0.00 0.00 0.00 51 1016.7
20260831224557 93 70 0.0 4.0 0.00 0.00 0.00 52 1016.6
20260831224028 93 179 0.0 4.0 0.00 0.00 0.00 51 1016.7
20260831223529 94 0 0.0 3.0 0.00 0.00 0.00 51 1016.7
20260831223107 93 8 0.0 3.0 0.00 0.00 0.00 50 1016.8
20260831222529 94 0 0.0 3.0 0.00 0.00 0.00 49 1016.9
20260831222029 94 94 0.0 3.0 0.00 0.00 0.00 50 1017.0
20260831221557 94 71 0.0 3.0 0.00 0.00 0.00 50 1017.2
20260831221028 95 0 0.0 3.0 0.00 0.00 0.00 50 1017.2
20260831220532 95 115 0.0 7.0 0.00 0.00 0.00 50 1017.1
20260831220052 94 248 1.0 7.0 0.00 0.00 0.00 50 1017.0
20260831215529 94 188 1.0 6.0 0.00 0.00 0.00 51 1017.2
20260831215028 95 200 0.0 5.0 0.00 0.00 0.00 49 1017.2
20260831214557 95 127 0.0 5.0 0.00 0.00 0.00 50 1017.4
20260831214028 95 0 1.0 2.0 0.00 0.00 0.00 50 1017.3
20260831213531 95 0 0.0 4.0 0.00 0.00 0.00 50 1017.5
20260831213058 94 0 0.0 4.0 0.00 0.00 0.00 51 1017.6
20260831212528 93 0 0.0 4.0 0.00 0.00 0.00 51 1017.5
20260831212030 95 0 0.0 4.0 0.00 0.00 0.00 50 1017.4
20260831211552 96 0 0.0 3.0 0.00 0.00 0.00 50 1017.5
20260831211027 95 0 0.0 7.0 0.00 0.00 0.00 50 1017.5
20260831210529 94 0 0.0 7.0 0.00 0.00 0.00 50 1017.7
20260831210049 94 0 1.0 7.0 0.00 0.00 0.00 52 1017.5
20260831205530 94 331 1.0 7.0 0.00 0.00 0.00 53 1017.5
20260831205029 93 354 2.0 7.0 0.00 0.00 0.00 53 1017.5
20260831204545 93 1 4.0 7.0 0.00 0.00 0.00 53 1017.7
20260831204033 94 0 1.0 6.0 0.00 0.00 0.00 52 1017.7
20260831203528 92 3 3.0 6.0 0.00 0.00 0.00 53 1017.8
20260831203109 92 345 1.0 6.0 0.00 0.00 0.00 52 1017.8
20260831202531 94 332 0.0 4.0 0.00 0.00 0.00 49 1017.8
20260831202033 95 0 0.0 4.0 0.00 0.00 0.00 50 1018.0
20260831201551 94 0 2.0 4.0 0.00 0.00 0.00 52 1018.0
20260831201029 93 212 0.0 5.0 0.00 0.00 0.00 52 1018.0
20260831200529 94 169 1.0 5.0 0.00 0.00 0.00 52 1018.2
20260831200101 94 85 0.0 2.0 0.00 0.00 0.00 54 1018.1
20260831195532 93 131 0.0 2.0 0.00 0.00 0.00 52 1018.3